OBJECT AS, 68456

Orbit data source: Space-Track

You're viewing an Uncataloged Satellite

Recently launched and/or uncataloged satellites may have evolving metadata. Metadata may include but not limited to: Owner, Maufacturer, Bus, Motor, and Mission.

OBJECT AS, 68456 is a satellite in SSO that was launched on Mon, 30 Mar 2026 UTC via an FALCON 9 launch vehicle from the Air Force Western Test Range (AFWTR). Unknown objects in Earth's orbit typically refer to objects detected orbiting the Earth but have not yet been identified or cataloged. These objects could be anything from previously untracked satellites, spent rocket stages, debris from satellite collisions, or even natural meteoroids temporarily captured by Earth's gravity.

Loading next visibility...
Identifier
68456, 2026-067AS
Orbit
SSO
Country
Flag of TBDTBD
Related business
Manufacturer
TAIPT
Mission
Operational spacecraft
Bus & Motor
CUBESAT 6U, Unknown motor
Mass
~10 kg wet, ~10 kg dry
Launch date (UTC)
2026-03-30 (1 month ago)
Launch vehicle
FALCON 9
Launch site
Air Force Western Test Range (AFWTR)
Object type
Unknown
Shape & HBR
Unknown shape, 1.1 m
Radar Cross Section
RCS unknown

Expand to show TLE details & history
Last TLE update: 10 hours ago

TLE from 10 hours ago
0 OBJECT AS
1 68456U 26067AS  26127.16809069  .00005330  00000-0  27228-3 0  9992
2 68456  97.4533  86.1849 0005155 186.8924 173.2239 15.17094210  5712
Epoch: 2026-05-07T04:02Z
TLE epoch observation values (Epoch: 2026-05-07T04:02:03.035Z)
Latitude
-0.00007°
Longitude
160.65416°
Altitude
521.242 km
Speed
7.601 km/s
True Right ascension
05h 44m 44s
True Declination
0° 00' 00"
Sunlit
Object was in daylight at epoch
Visualization orbit readout
Latitude
Unknown
Longitude
Unknown
Altitude
Unknown
Speed
Unknown
Apparent Right ascension
Unknown
Apparent Declination
Unknown
Sunlit
N/A
Visualization observer readout
Local Sidereal Time
22:04:43
Azimuth
Unknown
Elevation
Unknown
Doppler factor
Unknown
Orbital elements
Apogee altitude
515.151 km
Perigee altitude
508.048 km
Semi-major axis
6,889.737 km
Eccentricity
0.00052
Inclination
97.4533°
RAAN
86.1849°
Arg. of periapsis
186.8924°
True anomaly
173.23087°
Mean anomaly
173.2239°
Eccentric anomaly
173.22738°
Mean motion
3.79524 °/min
Orbital period
94.86 mins
BSTAR
0.00027228
Loading maneuver chart data...
Computing Atmospheric mass density...
Loading historical data...
Loading historical data...
Loading historical data...
Loading historical data...
Loading historical data...
Loading historical data...
Loading historical data...

Documentation

Showing up to 5 results
|